| time (UTC) | temp F | wind direction | speed MPH | gust MPH | rain 1hr in | rain 24hr in | rain mn in | humidity % | barometer mb |
| 20260901195042 | 51 | 0 | 0.0 | 0.0 | 0.00 | 0.23 | 0.23 | 88 | 1007.5 |
| 20260901194601 | 51 | 0 | 0.0 | 0.0 | 0.00 | 0.23 | 0.23 | 88 | 1007.6 |
| 20260901194044 | 51 | 0 | 0.0 | 0.0 | 0.00 | 0.23 | 0.23 | 88 | 1007.7 |
| 20260901193542 | 51 | 0 | 0.0 | 0.0 | 0.00 | 0.23 | 0.23 | 88 | 1007.7 |
| 20260901193108 | 51 | 0 | 0.0 | 0.0 | 0.00 | 0.23 | 0.23 | 88 | 1007.6 |
| 20260901192542 | 51 | 0 | 0.0 | 0.0 | 0.00 | 0.23 | 0.23 | 88 | 1007.6 |
| 20260901192042 | 51 | 0 | 0.0 | 0.0 | 0.00 | 0.23 | 0.23 | 88 | 1007.6 |
| 20260901191553 | 51 | 0 | 0.0 | 0.0 | 0.00 | 0.23 | 0.23 | 88 | 1007.7 |
| 20260901191039 | 52 | 0 | 0.0 | 0.0 | 0.00 | 0.23 | 0.23 | 88 | 1007.6 |
| 20260901190541 | 52 | 0 | 0.0 | 0.0 | 0.00 | 0.23 | 0.23 | 88 | 1007.7 |
| 20260901190105 | 52 | 0 | 0.0 | 0.0 | 0.00 | 0.23 | 0.23 | 88 | 1007.7 |
| 20260901185541 | 52 | 0 | 0.0 | 0.0 | 0.00 | 0.23 | 0.23 | 88 | 1007.7 |
| 20260901185042 | 52 | 0 | 0.0 | 0.0 | 0.00 | 0.23 | 0.23 | 88 | 1007.8 |
| 20260901184607 | 52 | 0 | 0.0 | 0.0 | 0.00 | 0.23 | 0.23 | 87 | 1007.7 |
| 20260901184042 | 52 | 0 | 0.0 | 0.0 | 0.00 | 0.23 | 0.23 | 87 | 1007.7 |
| 20260901183546 | 52 | 0 | 0.0 | 0.0 | 0.00 | 0.23 | 0.23 | 87 | 1007.8 |
| 20260901183057 | 52 | 0 | 0.0 | 0.0 | 0.00 | 0.23 | 0.23 | 87 | 1007.8 |
| 20260901182549 | 52 | 0 | 0.0 | 0.0 | 0.00 | 0.23 | 0.23 | 87 | 1007.8 |
| 20260901182044 | 52 | 0 | 0.0 | 0.0 | 0.00 | 0.23 | 0.23 | 87 | 1007.8 |
| 20260901181607 | 52 | 0 | 0.0 | 0.0 | 0.00 | 0.23 | 0.23 | 87 | 1007.8 |
| 20260901181043 | 52 | 0 | 0.0 | 3.0 | 0.00 | 0.23 | 0.23 | 87 | 1007.8 |
| 20260901180547 | 52 | 0 | 0.0 | 3.0 | 0.00 | 0.23 | 0.23 | 87 | 1007.8 |
| 20260901180109 | 52 | 232 | 1.0 | 3.0 | 0.00 | 0.23 | 0.23 | 87 | 1007.9 |
| 20260901175544 | 52 | 231 | 0.0 | 3.0 | 0.00 | 0.23 | 0.23 | 87 | 1007.9 |
| 20260901175043 | 52 | 227 | 0.0 | 4.0 | 0.00 | 0.23 | 0.23 | 87 | 1007.8 |
| 20260901174559 | 52 | 192 | 0.0 | 4.0 | 0.00 | 0.23 | 0.23 | 87 | 1007.9 |
| 20260901174044 | 52 | 0 | 0.0 | 0.0 | 0.00 | 0.23 | 0.23 | 87 | 1007.9 |
| 20260901173544 | 52 | 0 | 0.0 | 2.0 | 0.00 | 0.23 | 0.23 | 87 | 1007.8 |
| 20260901173102 | 52 | 0 | 0.0 | 3.0 | 0.00 | 0.23 | 0.23 | 86 | 1007.8 |
| 20260901172543 | 52 | 252 | 0.0 | 4.0 | 0.00 | 0.23 | 0.23 | 86 | 1007.9 |
| 20260901172043 | 52 | 252 | 2.0 | 6.0 | 0.00 | 0.23 | 0.23 | 86 | 1007.9 |
| 20260901171604 | 52 | 194 | 2.0 | 6.0 | 0.00 | 0.23 | 0.23 | 86 | 1007.9 |
| 20260901171046 | 52 | 237 | 2.0 | 6.0 | 0.00 | 0.23 | 0.23 | 86 | 1007.9 |
| 20260901170545 | 52 | 196 | 2.0 | 5.0 | 0.00 | 0.23 | 0.23 | 86 | 1007.9 |
| 20260901170106 | 52 | 222 | 2.0 | 5.0 | 0.00 | 0.23 | 0.23 | 86 | 1007.9 |
| 20260901165543 | 52 | 227 | 2.0 | 4.0 | 0.00 | 0.23 | 0.23 | 86 | 1007.8 |
| 20260901165043 | 52 | 213 | 0.0 | 4.0 | 0.00 | 0.23 | 0.23 | 86 | 1007.8 |
| 20260901164606 | 52 | 0 | 1.0 | 4.0 | 0.00 | 0.23 | 0.23 | 86 | 1007.8 |
| 20260901164045 | 52 | 0 | 0.0 | 0.0 | 0.00 | 0.23 | 0.23 | 87 | 1007.8 |
| 20260901163544 | 52 | 0 | 0.0 | 0.0 | 0.00 | 0.23 | 0.23 | 87 | 1007.8 |
| 20260901163104 | 52 | 0 | 0.0 | 0.0 | 0.00 | 0.23 | 0.23 | 87 | 1007.7 |
| 20260901162544 | 52 | 0 | 0.0 | 0.0 | 0.00 | 0.23 | 0.23 | 87 | 1007.6 |
| 20260901162043 | 52 | 0 | 0.0 | 0.0 | 0.00 | 0.23 | 0.23 | 87 | 1007.6 |
| 20260901161606 | 52 | 0 | 0.0 | 0.0 | 0.00 | 0.23 | 0.23 | 87 | 1007.6 |
| 20260901161047 | 52 | 0 | 0.0 | 2.0 | 0.00 | 0.23 | 0.23 | 87 | 1007.6 |
| 20260901160548 | 52 | 0 | 0.0 | 3.0 | 0.00 | 0.23 | 0.23 | 87 | 1007.6 |
| 20260901160107 | 52 | 265 | 1.0 | 4.0 | 0.00 | 0.23 | 0.23 | 87 | 1007.6 |
| 20260901155543 | 52 | 0 | 1.0 | 5.0 | 0.00 | 0.23 | 0.23 | 87 | 1007.7 |
| 20260901155046 | 52 | 252 | 1.0 | 5.0 | 0.00 | 0.23 | 0.23 | 86 | 1007.7 |
| 20260901154604 | 52 | 212 | 1.0 | 4.0 | 0.00 | 0.23 | 0.23 | 87 | 1007.6 |
| 20260901154048 | 52 | 221 | 2.0 | 4.0 | 0.00 | 0.23 | 0.23 | 87 | 1007.6 |
| 20260901153544 | 52 | 0 | 1.0 | 4.0 | 0.00 | 0.23 | 0.23 | 87 | 1007.6 |
| 20260901153102 | 52 | 0 | 0.0 | 4.0 | 0.00 | 0.23 | 0.23 | 87 | 1007.7 |
| 20260901152543 | 52 | 244 | 1.0 | 4.0 | 0.00 | 0.23 | 0.23 | 87 | 1007.7 |
| 20260901152043 | 52 | 244 | 2.0 | 4.0 | 0.00 | 0.23 | 0.23 | 87 | 1007.6 |
| 20260901151558 | 52 | 241 | 0.0 | 4.0 | 0.00 | 0.23 | 0.23 | 87 | 1007.6 |
| 20260901151042 | 52 | 271 | 0.0 | 4.0 | 0.00 | 0.23 | 0.23 | 87 | 1007.6 |
| 20260901150543 | 52 | 0 | 1.0 | 4.0 | 0.00 | 0.23 | 0.23 | 87 | 1007.6 |
| 20260901150118 | 52 | 0 | 0.0 | 0.0 | 0.00 | 0.23 | 0.23 | 87 | 1007.7 |
| 20260901145545 | 52 | 0 | 0.0 | 0.0 | 0.00 | 0.23 | 0.23 | 88 | 1007.6 |
| 20260901145041 | 52 | 0 | 0.0 | 3.0 | 0.00 | 0.23 | 0.23 | 87 | 1007.6 |
| 20260901144603 | 52 | 0 | 0.0 | 3.0 | 0.00 | 0.23 | 0.23 | 87 | 1007.6 |
| 20260901144041 | 52 | 258 | 1.0 | 3.0 | 0.00 | 0.23 | 0.23 | 87 | 1007.6 |
| 20260901143541 | 52 | 262 | 0.0 | 5.0 | 0.00 | 0.23 | 0.23 | 87 | 1007.6 |
| 20260901143108 | 52 | 0 | 1.0 | 5.0 | 0.00 | 0.23 | 0.23 | 87 | 1007.6 |
| 20260901142541 | 52 | 304 | 2.0 | 5.0 | 0.00 | 0.23 | 0.23 | 87 | 1007.6 |
| 20260901142042 | 52 | 0 | 1.0 | 4.0 | 0.00 | 0.23 | 0.23 | 87 | 1007.6 |
| 20260901141605 | 52 | 243 | 1.0 | 3.0 | 0.00 | 0.23 | 0.23 | 88 | 1007.6 |
| 20260901141041 | 52 | 333 | 0.0 | 4.0 | 0.00 | 0.23 | 0.23 | 88 | 1007.6 |
| 20260901140541 | 52 | 0 | 0.0 | 5.0 | 0.00 | 0.23 | 0.23 | 88 | 1007.6 |
| 20260901135541 | 52 | 231 | 1.0 | 5.0 | 0.00 | 0.23 | 0.23 | 88 | 1007.6 |
| 20260901135045 | 52 | 234 | 2.0 | 5.0 | 0.00 | 0.23 | 0.23 | 88 | 1007.5 |
| 20260901134631 | 52 | 293 | 2.0 | 5.0 | 0.00 | 0.23 | 0.23 | 88 | 1007.5 |
| 20260901134040 | 52 | 0 | 2.0 | 7.0 | 0.00 | 0.23 | 0.23 | 88 | 1007.6 |
| 20260901133546 | 52 | 230 | 2.0 | 7.0 | 0.00 | 0.23 | 0.23 | 88 | 1007.5 |
| 20260901133105 | 52 | 236 | 2.0 | 8.0 | 0.00 | 0.23 | 0.23 | 88 | 1007.5 |
| 20260901132542 | 52 | 219 | 1.0 | 8.0 | 0.00 | 0.23 | 0.23 | 88 | 1007.5 |
| 20260901132042 | 52 | 241 | 5.0 | 9.0 | 0.00 | 0.23 | 0.23 | 88 | 1007.5 |
| 20260901131608 | 52 | 263 | 4.0 | 9.0 | 0.00 | 0.23 | 0.23 | 88 | 1007.4 |
| 20260901131041 | 52 | 252 | 2.0 | 9.0 | 0.00 | 0.23 | 0.23 | 88 | 1007.5 |
| 20260901130544 | 52 | 251 | 3.0 | 9.0 | 0.00 | 0.23 | 0.23 | 88 | 1007.4 |
| 20260901130113 | 52 | 285 | 4.0 | 9.0 | 0.00 | 0.23 | 0.23 | 88 | 1007.5 |
| 20260901125541 | 52 | 269 | 3.0 | 8.0 | 0.00 | 0.23 | 0.23 | 88 | 1007.4 |
| 20260901125041 | 52 | 246 | 3.0 | 8.0 | 0.00 | 0.23 | 0.23 | 88 | 1007.4 |
| 20260901124608 | 52 | 252 | 1.0 | 8.0 | 0.00 | 0.23 | 0.23 | 87 | 1007.4 |
| 20260901124041 | 52 | 240 | 3.0 | 8.0 | 0.00 | 0.23 | 0.23 | 87 | 1007.4 |
| 20260901123541 | 52 | 243 | 4.0 | 8.0 | 0.00 | 0.23 | 0.23 | 86 | 1007.4 |
| 20260901123104 | 52 | 242 | 2.0 | 6.0 | 0.00 | 0.23 | 0.23 | 87 | 1007.3 |
| 20260901122545 | 52 | 159 | 1.0 | 10.0 | 0.00 | 0.23 | 0.23 | 86 | 1007.3 |
| 20260901122044 | 52 | 250 | 1.0 | 10.0 | 0.00 | 0.23 | 0.23 | 87 | 1007.3 |
| 20260901121605 | 52 | 265 | 3.0 | 10.0 | 0.00 | 0.23 | 0.23 | 86 | 1007.4 |
| 20260901121042 | 52 | 240 | 3.0 | 8.0 | 0.00 | 0.23 | 0.23 | 86 | 1007.4 |
| 20260901120542 | 52 | 294 | 1.0 | 8.0 | 0.00 | 0.23 | 0.23 | 86 | 1007.3 |
| 20260901120105 | 52 | 214 | 4.0 | 10.0 | 0.00 | 0.23 | 0.23 | 86 | 1007.1 |
| 20260901115543 | 52 | 237 | 4.0 | 10.0 | 0.00 | 0.23 | 0.23 | 86 | 1007.2 |
| 20260901115043 | 52 | 244 | 2.0 | 7.0 | 0.00 | 0.23 | 0.23 | 87 | 1007.1 |
| 20260901114557 | 52 | 245 | 3.0 | 7.0 | 0.00 | 0.23 | 0.23 | 88 | 1007.1 |
| 20260901114043 | 52 | 328 | 1.0 | 5.0 | 0.00 | 0.23 | 0.23 | 89 | 1007.0 |
| 20260901113543 | 52 | 337 | 2.0 | 8.0 | 0.00 | 0.23 | 0.23 | 89 | 1007.0 |
| 20260901113117 | 52 | 243 | 3.0 | 8.0 | 0.00 | 0.23 | 0.23 | 89 | 1007.0 |
| 20260901112543 | 52 | 265 | 2.0 | 5.0 | 0.00 | 0.23 | 0.23 | 89 | 1007.0 |
| 20260901112043 | 52 | 269 | 2.0 | 8.0 | 0.00 | 0.23 | 0.23 | 89 | 1006.9 |
| 20260901111604 | 52 | 242 | 1.0 | 10.0 | 0.00 | 0.23 | 0.23 | 89 | 1006.9 |
| 20260901111047 | 51 | 242 | 4.0 | 10.0 | 0.00 | 0.23 | 0.23 | 89 | 1006.9 |
| 20260901110546 | 51 | 238 | 1.0 | 7.0 | 0.00 | 0.23 | 0.23 | 89 | 1007.0 |
| 20260901110108 | 51 | 237 | 3.0 | 7.0 | 0.00 | 0.23 | 0.23 | 89 | 1006.9 |
| 20260901105545 | 51 | 257 | 2.0 | 7.0 | 0.00 | 0.23 | 0.23 | 90 | 1006.9 |
| 20260901105046 | 51 | 217 | 2.0 | 5.0 | 0.00 | 0.23 | 0.23 | 90 | 1006.8 |
| 20260901104601 | 51 | 242 | 1.0 | 5.0 | 0.00 | 0.23 | 0.23 | 90 | 1006.7 |
| 20260901104043 | 51 | 240 | 1.0 | 7.0 | 0.00 | 0.23 | 0.23 | 90 | 1006.7 |
| 20260901103543 | 51 | 294 | 3.0 | 8.0 | 0.00 | 0.23 | 0.23 | 90 | 1006.7 |
| 20260901103106 | 51 | 257 | 3.0 | 8.0 | 0.00 | 0.23 | 0.23 | 89 | 1006.6 |
| 20260901102543 | 51 | 230 | 3.0 | 9.0 | 0.00 | 0.23 | 0.23 | 90 | 1006.5 |
| 20260901102044 | 51 | 331 | 4.0 | 9.0 | 0.01 | 0.23 | 0.23 | 90 | 1006.5 |
| 20260901101616 | 51 | 296 | 2.0 | 9.0 | 0.01 | 0.23 | 0.23 | 90 | 1006.4 |
| 20260901101043 | 51 | 209 | 3.0 | 9.0 | 0.01 | 0.23 | 0.23 | 90 | 1006.4 |
| 20260901100543 | 51 | 246 | 2.0 | 10.0 | 0.01 | 0.23 | 0.23 | 90 | 1006.4 |
| 20260901100120 | 51 | 250 | 4.0 | 10.0 | 0.02 | 0.23 | 0.23 | 89 | 1006.3 |
| 20260901095543 | 51 | 254 | 4.0 | 12.0 | 0.02 | 0.23 | 0.23 | 90 | 1006.3 |
| 20260901095044 | 51 | 233 | 4.0 | 12.0 | 0.02 | 0.22 | 0.22 | 90 | 1006.2 |
| 20260901094603 | 51 | 229 | 4.0 | 9.0 | 0.02 | 0.22 | 0.22 | 90 | 1006.2 |
| 20260901094043 | 51 | 249 | 4.0 | 8.0 | 0.02 | 0.22 | 0.22 | 90 | 1006.1 |
| 20260901093546 | 51 | 283 | 3.0 | 7.0 | 0.03 | 0.22 | 0.22 | 90 | 1006.1 |
| 20260901093100 | 51 | 240 | 2.0 | 7.0 | 0.03 | 0.22 | 0.22 | 90 | 1006.1 |
| 20260901092544 | 51 | 252 | 3.0 | 10.0 | 0.03 | 0.22 | 0.22 | 90 | 1006.0 |
| 20260901092046 | 51 | 250 | 1.0 | 10.0 | 0.03 | 0.22 | 0.22 | 90 | 1005.9 |
| 20260901091555 | 52 | 235 | 3.0 | 10.0 | 0.03 | 0.22 | 0.22 | 89 | 1005.9 |
| 20260901091043 | 52 | 325 | 0.0 | 6.0 | 0.03 | 0.22 | 0.22 | 90 | 1005.9 |
| 20260901090543 | 52 | 277 | 1.0 | 6.0 | 0.02 | 0.21 | 0.21 | 90 | 1005.8 |
| 20260901090100 | 52 | 336 | 0.0 | 7.0 | 0.03 | 0.21 | 0.21 | 90 | 1005.8 |
| 20260901085547 | 52 | 0 | 1.0 | 8.0 | 0.03 | 0.21 | 0.21 | 90 | 1005.8 |
| 20260901085043 | 52 | 227 | 2.0 | 8.0 | 0.02 | 0.20 | 0.20 | 90 | 1005.8 |
| 20260901084600 | 52 | 291 | 2.0 | 7.0 | 0.02 | 0.20 | 0.20 | 90 | 1005.7 |
| 20260901084043 | 52 | 312 | 2.0 | 8.0 | 0.01 | 0.19 | 0.19 | 90 | 1005.6 |
| 20260901083543 | 51 | 292 | 2.0 | 8.0 | 0.02 | 0.19 | 0.19 | 90 | 1005.6 |
| 20260901083100 | 51 | 298 | 1.0 | 9.0 | 0.02 | 0.19 | 0.19 | 90 | 1005.6 |
| 20260901082542 | 51 | 315 | 3.0 | 9.0 | 0.02 | 0.19 | 0.19 | 90 | 1005.7 |
| 20260901082044 | 51 | 0 | 1.0 | 9.0 | 0.01 | 0.18 | 0.18 | 90 | 1005.5 |
| 20260901081602 | 51 | 273 | 3.0 | 9.0 | 0.01 | 0.18 | 0.18 | 90 | 1005.5 |
| 20260901081042 | 51 | 290 | 2.0 | 6.0 | 0.01 | 0.18 | 0.18 | 90 | 1005.5 |
| 20260901080543 | 51 | 314 | 1.0 | 8.0 | 0.01 | 0.18 | 0.18 | 90 | 1005.6 |
| 20260901080100 | 51 | 245 | 2.0 | 8.0 | 0.00 | 0.18 | 0.18 | 90 | 1005.5 |
| 20260901075543 | 51 | 0 | 1.0 | 8.0 | 0.00 | 0.18 | 0.18 | 90 | 1005.4 |
| 20260901075045 | 51 | 259 | 3.0 | 8.0 | 0.00 | 0.18 | 0.18 | 90 | 1005.4 |
| 20260901074606 | 51 | 324 | 2.0 | 9.0 | 0.00 | 0.18 | 0.18 | 90 | 1005.3 |
| 20260901074044 | 51 | 242 | 4.0 | 9.0 | 0.00 | 0.18 | 0.18 | 89 | 1005.3 |
| 20260901073544 | 51 | 292 | 3.0 | 10.0 | 0.00 | 0.18 | 0.17 | 89 | 1005.3 |
| 20260901073103 | 51 | 217 | 3.0 | 11.0 | 0.00 | 0.18 | 0.17 | 89 | 1005.2 |
| 20260901072544 | 51 | 0 | 2.0 | 11.0 | 0.00 | 0.18 | 0.17 | 89 | 1005.1 |
| 20260901072048 | 51 | 261 | 3.0 | 12.0 | 0.00 | 0.18 | 0.17 | 89 | 1005.1 |
| 20260901071603 | 51 | 342 | 3.0 | 12.0 | 0.00 | 0.18 | 0.17 | 89 | 1005.0 |
| 20260901071043 | 51 | 321 | 3.0 | 11.0 | 0.00 | 0.18 | 0.17 | 89 | 1005.0 |
| 20260901070546 | 51 | 360 | 4.0 | 11.0 | 0.00 | 0.18 | 0.17 | 89 | 1004.9 |
| 20260901070103 | 51 | 224 | 3.0 | 10.0 | 0.01 | 0.18 | 0.17 | 89 | 1004.9 |
| 20260901065546 | 52 | 269 | 3.0 | 14.0 | 0.01 | 0.18 | 0.17 | 89 | 1004.8 |
| 20260901065043 | 52 | 298 | 5.0 | 15.0 | 0.01 | 0.18 | 0.17 | 89 | 1004.8 |
| 20260901064555 | 52 | 352 | 6.0 | 15.0 | 0.02 | 0.18 | 0.17 | 89 | 1004.7 |
| 20260901064043 | 52 | 245 | 5.0 | 15.0 | 0.02 | 0.18 | 0.17 | 90 | 1004.6 |
| 20260901063545 | 52 | 0 | 2.0 | 7.0 | 0.01 | 0.17 | 0.16 | 90 | 1004.7 |
| 20260901063101 | 52 | 312 | 2.0 | 11.0 | 0.02 | 0.17 | 0.16 | 90 | 1004.6 |
| 20260901062542 | 52 | 340 | 2.0 | 11.0 | 0.02 | 0.17 | 0.16 | 90 | 1004.6 |
| 20260901062047 | 52 | 287 | 2.0 | 10.0 | 0.03 | 0.17 | 0.16 | 90 | 1004.6 |
| 20260901061602 | 52 | 302 | 3.0 | 9.0 | 0.03 | 0.17 | 0.16 | 91 | 1004.6 |
| 20260901061044 | 52 | 347 | 1.0 | 9.0 | 0.03 | 0.17 | 0.16 | 91 | 1004.5 |
| 20260901060545 | 52 | 41 | 2.0 | 9.0 | 0.03 | 0.17 | 0.16 | 91 | 1004.5 |
| 20260901060100 | 52 | 360 | 3.0 | 12.0 | 0.03 | 0.16 | 0.15 | 91 | 1004.5 |
| 20260901055543 | 52 | 323 | 3.0 | 12.0 | 0.03 | 0.16 | 0.15 | 91 | 1004.3 |
| 20260901055045 | 52 | 279 | 4.0 | 12.0 | 0.03 | 0.16 | 0.15 | 91 | 1004.3 |
| 20260901054604 | 52 | 273 | 5.0 | 12.0 | 0.03 | 0.15 | 0.14 | 91 | 1004.3 |
| 20260901054043 | 52 | 325 | 5.0 | 13.0 | 0.03 | 0.15 | 0.14 | 91 | 1004.2 |
| 20260901053543 | 52 | 260 | 5.0 | 13.0 | 0.03 | 0.15 | 0.14 | 91 | 1004.2 |
| 20260901053123 | 52 | 321 | 5.0 | 13.0 | 0.03 | 0.14 | 0.14 | 91 | 1004.2 |
| 20260901052543 | 52 | 306 | 4.0 | 12.0 | 0.03 | 0.14 | 0.14 | 91 | 1004.2 |
| 20260901052043 | 52 | 360 | 3.0 | 12.0 | 0.03 | 0.14 | 0.13 | 91 | 1004.2 |
| 20260901051610 | 52 | 321 | 4.0 | 12.0 | 0.03 | 0.14 | 0.13 | 91 | 1004.2 |
| 20260901051043 | 52 | 350 | 3.0 | 10.0 | 0.02 | 0.13 | 0.12 | 91 | 1004.0 |
| 20260901050543 | 52 | 360 | 3.0 | 10.0 | 0.02 | 0.13 | 0.12 | 91 | 1004.1 |
| 20260901050055 | 52 | 279 | 3.0 | 12.0 | 0.02 | 0.12 | 0.11 | 91 | 1004.0 |
| 20260901045544 | 52 | 320 | 3.0 | 12.0 | 0.02 | 0.12 | 0.11 | 91 | 1004.1 |
| 20260901045042 | 52 | 311 | 4.0 | 12.0 | 0.02 | 0.12 | 0.11 | 91 | 1004.1 |
| 20260901044634 | 52 | 292 | 3.0 | 11.0 | 0.01 | 0.11 | 0.11 | 91 | 1004.0 |
| 20260901044043 | 52 | 273 | 4.0 | 12.0 | 0.01 | 0.11 | 0.11 | 91 | 1004.0 |
| 20260901043542 | 52 | 9 | 2.0 | 12.0 | 0.02 | 0.11 | 0.11 | 91 | 1004.1 |
| 20260901043113 | 52 | 321 | 3.0 | 12.0 | 0.01 | 0.11 | 0.10 | 91 | 1004.1 |
| 20260901042542 | 52 | 296 | 3.0 | 9.0 | 0.01 | 0.11 | 0.10 | 91 | 1004.2 |
| 20260901042042 | 52 | 310 | 3.0 | 10.0 | 0.01 | 0.11 | 0.10 | 91 | 1004.1 |
| 20260901041602 | 52 | 0 | 2.0 | 10.0 | 0.02 | 0.11 | 0.10 | 91 | 1004.1 |
| 20260901041045 | 52 | 317 | 3.0 | 13.0 | 0.02 | 0.11 | 0.10 | 91 | 1004.0 |
| 20260901040544 | 52 | 350 | 3.0 | 13.0 | 0.03 | 0.11 | 0.10 | 91 | 1004.0 |
| 20260901040107 | 52 | 325 | 3.0 | 13.0 | 0.02 | 0.10 | 0.09 | 91 | 1004.0 |
| 20260901035543 | 52 | 315 | 4.0 | 12.0 | 0.02 | 0.10 | 0.09 | 91 | 1004.0 |
| 20260901035043 | 52 | 27 | 2.0 | 9.0 | 0.03 | 0.10 | 0.09 | 91 | 1003.9 |
| 20260901034609 | 52 | 327 | 2.0 | 9.0 | 0.03 | 0.10 | 0.09 | 91 | 1003.9 |
| 20260901034042 | 52 | 318 | 4.0 | 9.0 | 0.03 | 0.09 | 0.08 | 91 | 1004.0 |
| 20260901033542 | 52 | 5 | 3.0 | 11.0 | 0.03 | 0.09 | 0.08 | 90 | 1004.0 |
| 20260901033052 | 52 | 309 | 5.0 | 11.0 | 0.03 | 0.09 | 0.08 | 90 | 1003.9 |
| 20260901032544 | 52 | 34 | 4.0 | 10.0 | 0.03 | 0.09 | 0.08 | 90 | 1003.9 |
| 20260901032042 | 52 | 315 | 3.0 | 13.0 | 0.04 | 0.09 | 0.08 | 90 | 1003.9 |
| 20260901031600 | 52 | 345 | 3.0 | 13.0 | 0.03 | 0.08 | 0.07 | 90 | 1004.0 |
| 20260901031044 | 53 | 321 | 5.0 | 13.0 | 0.04 | 0.08 | 0.07 | 90 | 1004.0 |
| 20260901030546 | 53 | 315 | 3.0 | 11.0 | 0.03 | 0.07 | 0.07 | 90 | 1004.0 |
| 20260901030055 | 53 | 335 | 3.0 | 11.0 | 0.03 | 0.07 | 0.07 | 90 | 1004.0 |
| 20260901025544 | 53 | 0 | 1.0 | 7.0 | 0.04 | 0.09 | 0.07 | 91 | 1004.0 |
| 20260901025044 | 53 | 350 | 1.0 | 8.0 | 0.03 | 0.08 | 0.06 | 91 | 1004.0 |
| 20260901024557 | 53 | 26 | 1.0 | 8.0 | 0.03 | 0.07 | 0.05 | 90 | 1004.0 |
| 20260901024042 | 53 | 350 | 2.0 | 8.0 | 0.03 | 0.07 | 0.05 | 90 | 1004.0 |
| 20260901023543 | 53 | 349 | 2.0 | 8.0 | 0.03 | 0.07 | 0.05 | 90 | 1003.9 |
| 20260901023107 | 53 | 277 | 2.0 | 8.0 | 0.03 | 0.07 | 0.04 | 90 | 1004.0 |
| 20260901022543 | 53 | 302 | 2.0 | 8.0 | 0.03 | 0.07 | 0.04 | 90 | 1004.0 |
| 20260901022043 | 53 | 12 | 3.0 | 8.0 | 0.02 | 0.06 | 0.03 | 90 | 1004.1 |
| 20260901021616 | 53 | 279 | 2.0 | 7.0 | 0.03 | 0.06 | 0.03 | 90 | 1004.1 |
| 20260901021047 | 53 | 0 | 1.0 | 8.0 | 0.02 | 0.05 | 0.03 | 90 | 1004.1 |
| 20260901020543 | 53 | 0 | 2.0 | 8.0 | 0.02 | 0.05 | 0.03 | 90 | 1004.2 |
| 20260901020111 | 53 | 0 | 1.0 | 4.0 | 0.02 | 0.05 | 0.03 | 90 | 1004.1 |
| 20260901015543 | 53 | 0 | 0.0 | 0.0 | 0.01 | 0.04 | 0.02 | 90 | 1004.1 |
| 20260901015043 | 53 | 0 | 0.0 | 3.0 | 0.01 | 0.04 | 0.02 | 90 | 1004.2 |
| 20260901014606 | 53 | 0 | 0.0 | 3.0 | 0.01 | 0.04 | 0.02 | 90 | 1004.1 |
| 20260901014042 | 53 | 199 | 1.0 | 3.0 | 0.01 | 0.03 | 0.01 | 90 | 1004.2 |
| 20260901013543 | 53 | 0 | 0.0 | 0.0 | 0.01 | 0.03 | 0.01 | 90 | 1004.1 |
| 20260901013109 | 53 | 0 | 0.0 | 0.0 | 0.01 | 0.03 | 0.01 | 90 | 1004.1 |
| 20260901012545 | 53 | 0 | 0.0 | 0.0 | 0.01 | 0.03 | 0.01 | 90 | 1004.0 |
| 20260901012043 | 53 | 0 | 0.0 | 4.0 | 0.01 | 0.03 | 0.01 | 90 | 1004.1 |
| 20260901011602 | 53 | 0 | 0.0 | 6.0 | 0.00 | 0.03 | 0.00 | 90 | 1004.0 |
| 20260901011043 | 53 | 158 | 1.0 | 6.0 | 0.00 | 0.03 | 0.00 | 90 | 1004.0 |
| 20260901010543 | 53 | 157 | 1.0 | 6.0 | 0.00 | 0.03 | 0.00 | 90 | 1004.2 |
| 20260901010101 | 53 | 154 | 0.0 | 4.0 | 0.00 | 0.03 | 0.00 | 90 | 1004.2 |
| 20260901005543 | 53 | 177 | 1.0 | 6.0 | 0.00 | 0.03 | 0.00 | 90 | 1004.2 |
| 20260901005042 | 53 | 256 | 1.0 | 6.0 | 0.00 | 0.03 | 0.00 | 90 | 1004.2 |
| 20260901004608 | 53 | 0 | 1.0 | 5.0 | 0.00 | 0.03 | 0.00 | 90 | 1004.3 |
| 20260901004042 | 53 | 340 | 1.0 | 4.0 | 0.00 | 0.03 | 0.00 | 90 | 1004.3 |
| 20260901003542 | 53 | 0 | 1.0 | 4.0 | 0.00 | 0.03 | 0.00 | 90 | 1004.3 |
| 20260901003123 | 53 | 0 | 0.0 | 4.0 | 0.00 | 0.03 | 0.00 | 90 | 1004.4 |
| 20260901002542 | 53 | 163 | 0.0 | 2.0 | 0.00 | 0.03 | 0.00 | 90 | 1004.4 |
| 20260901002043 | 53 | 0 | 0.0 | 2.0 | 0.00 | 0.03 | 0.00 | 90 | 1004.4 |
| 20260901001612 | 53 | 0 | 0.0 | 2.0 | 0.00 | 0.03 | 0.00 | 90 | 1004.5 |
| 20260901001043 | 53 | 0 | 0.0 | 2.0 | 0.00 | 0.03 | 0.00 | 90 | 1004.4 |
| 20260901000543 | 53 | 163 | 0.0 | 2.0 | 0.00 | 0.03 | 0.00 | 91 | 1004.5 |
| 20260901000059 | 52 | 0 | 0.0 | 2.0 | 0.00 | 0.03 | 0.00 | 91 | 1004.5 |
| 20260831235543 | 52 | 0 | 0.0 | 2.0 | 0.00 | 0.03 | 0.00 | 91 | 1004.5 |
| 20260831235043 | 52 | 95 | 0.0 | 3.0 | 0.00 | 0.03 | 0.00 | 91 | 1004.6 |
| 20260831234624 | 52 | 0 | 0.0 | 3.0 | 0.00 | 0.03 | 0.00 | 91 | 1004.6 |
| 20260831234043 | 52 | 0 | 0.0 | 2.0 | 0.00 | 0.03 | 0.00 | 90 | 1004.6 |
| 20260831233544 | 52 | 0 | 0.0 | 2.0 | 0.00 | 0.03 | 0.00 | 90 | 1004.6 |
| 20260831233100 | 52 | 0 | 0.0 | 3.0 | 0.00 | 0.03 | 0.00 | 90 | 1004.6 |
| 20260831232542 | 52 | 0 | 0.0 | 3.0 | 0.00 | 0.03 | 0.00 | 90 | 1004.6 |
| 20260831232042 | 51 | 279 | 0.0 | 0.0 | 0.00 | 0.03 | 0.00 | 90 | 1004.7 |
| 20260831231607 | 51 | 0 | 0.0 | 0.0 | 0.00 | 0.03 | 0.00 | 89 | 1004.7 |
| 20260831231045 | 51 | 0 | 0.0 | 0.0 | 0.00 | 0.03 | 0.00 | 89 | 1004.8 |
| 20260831230542 | 51 | 0 | 0.0 | 0.0 | 0.00 | 0.03 | 0.00 | 89 | 1004.8 |
| 20260831230057 | 51 | 0 | 0.0 | 0.0 | 0.00 | 0.03 | 0.00 | 89 | 1004.9 |
| 20260831225543 | 51 | 0 | 0.0 | 0.0 | 0.00 | 0.03 | 0.00 | 89 | 1004.8 |
| 20260831225042 | 51 | 0 | 0.0 | 0.0 | 0.00 | 0.03 | 0.00 | 89 | 1004.9 |
| 20260831224602 | 51 | 0 | 0.0 | 0.0 | 0.00 | 0.03 | 0.00 | 89 | 1004.9 |
| 20260831224045 | 51 | 0 | 0.0 | 0.0 | 0.00 | 0.03 | 0.00 | 89 | 1005.0 |
| 20260831223543 | 51 | 0 | 0.0 | 0.0 | 0.00 | 0.03 | 0.00 | 89 | 1005.0 |
| 20260831223058 | 51 | 0 | 0.0 | 0.0 | 0.00 | 0.03 | 0.00 | 88 | 1005.0 |
| 20260831222541 | 51 | 0 | 0.0 | 0.0 | 0.00 | 0.03 | 0.00 | 88 | 1005.0 |
| 20260831222043 | 51 | 0 | 0.0 | 3.0 | 0.00 | 0.03 | 0.00 | 88 | 1005.0 |
| 20260831221554 | 51 | 0 | 0.0 | 3.0 | 0.00 | 0.03 | 0.00 | 88 | 1005.0 |
| 20260831221042 | 51 | 0 | 1.0 | 3.0 | 0.00 | 0.03 | 0.00 | 88 | 1005.1 |
| 20260831220543 | 51 | 0 | 0.0 | 0.0 | 0.00 | 0.03 | 0.00 | 87 | 1005.0 |
| 20260831220118 | 51 | 0 | 0.0 | 0.0 | 0.00 | 0.03 | 0.00 | 87 | 1005.2 |
| 20260831215544 | 51 | 0 | 0.0 | 0.0 | 0.00 | 0.04 | 0.03 | 86 | 1005.1 |
| 20260831215043 | 51 | 0 | 0.0 | 0.0 | 0.00 | 0.04 | 0.03 | 86 | 1005.2 |
| 20260831214603 | 51 | 0 | 0.0 | 0.0 | 0.00 | 0.04 | 0.03 | 86 | 1005.2 |
| 20260831214043 | 51 | 0 | 0.0 | 0.0 | 0.00 | 0.04 | 0.03 | 86 | 1005.2 |
| 20260831213542 | 51 | 0 | 0.0 | 0.0 | 0.00 | 0.04 | 0.03 | 86 | 1005.1 |
| 20260831213105 | 52 | 0 | 0.0 | 0.0 | 0.00 | 0.04 | 0.03 | 86 | 1005.2 |
| 20260831212545 | 52 | 0 | 0.0 | 0.0 | 0.00 | 0.04 | 0.03 | 86 | 1005.3 |
| 20260831212043 | 52 | 0 | 0.0 | 0.0 | 0.00 | 0.04 | 0.03 | 86 | 1005.3 |
| 20260831211612 | 52 | 0 | 0.0 | 0.0 | 0.00 | 0.04 | 0.03 | 86 | 1005.3 |
| 20260831211042 | 52 | 0 | 0.0 | 0.0 | 0.00 | 0.04 | 0.03 | 86 | 1005.3 |
| 20260831210544 | 52 | 0 | 0.0 | 0.0 | 0.00 | 0.04 | 0.03 | 86 | 1005.4 |
| 20260831210104 | 52 | 0 | 0.0 | 0.0 | 0.00 | 0.04 | 0.03 | 86 | 1005.4 |
| 20260831205543 | 52 | 0 | 0.0 | 0.0 | 0.00 | 0.08 | 0.03 | 86 | 1005.4 |
| 20260831205042 | 53 | 0 | 0.0 | 0.0 | 0.00 | 0.08 | 0.03 | 86 | 1005.4 |
| 20260831204559 | 53 | 0 | 0.0 | 0.0 | 0.00 | 0.08 | 0.03 | 86 | 1005.4 |
| 20260831204043 | 53 | 0 | 0.0 | 2.0 | 0.00 | 0.08 | 0.03 | 86 | 1005.4 |
| 20260831203542 | 53 | 0 | 0.0 | 2.0 | 0.00 | 0.08 | 0.03 | 86 | 1005.4 |
| 20260831203102 | 53 | 0 | 0.0 | 2.0 | 0.00 | 0.08 | 0.03 | 86 | 1005.3 |
| 20260831202542 | 53 | 0 | 0.0 | 0.0 | 0.00 | 0.08 | 0.03 | 86 | 1005.4 |
| 20260831202043 | 53 | 0 | 0.0 | 3.0 | 0.00 | 0.08 | 0.03 | 86 | 1005.5 |
| 20260831201608 | 53 | 0 | 0.0 | 3.0 | 0.00 | 0.08 | 0.03 | 86 | 1005.4 |
| 20260831201046 | 54 | 327 | 0.0 | 3.0 | 0.00 | 0.08 | 0.03 | 86 | 1005.5 |
| 20260831200543 | 54 | 0 | 0.0 | 0.0 | 0.00 | 0.08 | 0.03 | 86 | 1005.5 |
| 20260831200056 | 54 | 0 | 0.0 | 0.0 | 0.00 | 0.08 | 0.03 | 86 | 1005.4 |
| 20260831195544 | 54 | 0 | 0.0 | 0.0 | 0.00 | 0.11 | 0.03 | 86 | 1005.5 |